CHINASAT 9C

Last updated on Tue Sep 22 2026 00:03:16 GMT+0000 (Coordinated Universal Time)

1 64470U 25132A 26264.43611711 -.00000251 00000+0 00000+0 0 9995 2 64470 0.0193 129.5014 0003024 42.6257 77.4075 1.00270817 5116
UTC large
Height (km)
Speed (km/s)
/
Latitude / Longitude
Inclination (degrees)
Orbital Period (minutes)
Azimuth
Elevation
Range (km)
Doppler Factor

Next 0 passes for location: London (51.5072 / 0.1276)

No passes found over London.
CHINASAT 9C